www.pogodaiklimat.ru
ПОГОДА в Висейлии
Время
и дата
07:56 19.07
08:10 19.07
08:56 19.07
09:56 19.07
10:56 19.07
11:56 19.07
12:56 19.07
13:56 19.07
14:56 19.07
15:56 19.07
16:56 19.07
17:56 19.07
18:56 19.07
19:56 19.07
20:56 19.07
21:56 19.07
22:56 19.07
23:56 19.07
00:56 20.07
01:56 20.07
02:56 20.07
03:56 20.07
04:56 20.07
05:56 20.07
06:56 20.07
07:56 20.07
08:56 20.07
09:56 20.07
10:56 20.07
11:56 20.07
12:56 20.07
13:56 20.07
14:56 20.07
15:56 20.07
16:56 20.07
17:56 20.07
18:56 20.07
19:56 20.07
20:56 20.07
21:56 20.07
22:56 20.07
23:56 20.07
00:56 21.07
01:56 21.07
02:56 21.07
03:56 21.07
04:56 21.07
05:56 21.07
Ветер
(напр.,м/с)
Видим. Явления Облачность Т
(С)
Тd
(С)
f
(%)
Тe
(С)
Тes
(С)
Комфортность P
(гПа)
Po
(гПа)
Тmin
(С)
Tmax
(С)
R
(мм)
R24
(мм)
S
(см)
ЮВ 2 10 км мгла ясно +26.1 +15.6 52 +29 +33 жарко 1014.9 1004.3
Ю 3 6 км мгла 2/2 60 м +27.0 +15.0 48 +30 +35 душно 1004.3
Ю 2 16 км ясно +28.3 +15.6 46 +31 +39 душно 1014.8 1004.0
нст 2 16 км ясно +31.1 +15.0 38 +33 +46 душно 1014.5 1004.0 +19.4 +31.1
нст 3 16 км ясно +33.3 +15.0 33 +35 +49 душно 1014.3 1003.7
З 4 16 км ясно +34.4 +15.6 33 +37 +50 очень
душно
1013.8 1003.3
З 4 16 км ясно +36.7 +15.6 29 +39 +52 опасность
солнечного
удара
1013.1 1002.7
нст 3 16 км ясно +38.3 +16.1 27 +40 +56 опасность
солнечного
удара
1012.3 1002.0
СЗ 4 16 км ясно +38.9 +15.0 24 +40 +51 опасность
солнечного
удара
1011.6 1001.0
СЗ 4 16 км ясно +38.9 +15.0 24 +40 +48 очень
душно
1011.0 1000.3 +31.7 +39.4
СЗ 5 16 км ясно +38.3 +15.6 26 +40 +44 очень
душно
1010.4 1000.0
СЗ 4 16 км ясно +37.2 +16.7 30 +40 +42 очень
душно
1010.5 1000.0
СЗ 4 16 км ясно +35.0 +16.7 34 +38 +38 очень
душно
1010.6 1000.0
СЗ 3 16 км ясно +32.8 +17.2 39 +36 +36 очень
душно
1011.1 1000.6
СЗ 3 16 км ясно +31.7 +16.7 41 +35 +35 очень
душно
1011.5 1001.0
штиль 0 16 км ясно +30.0 +16.7 45 +34 +34 очень
душно
1011.3 1000.6 +29.4 +38.9
штиль 0 8 км мгла ясно +28.3 +17.8 53 +33 +33 очень
душно
1011.2 1000.6
ЮЗ 2 16 км ясно +25.6 +18.3 64 +30 +30 душно 1011.2 1000.6
ЮВ 2 16 км ясно +23.9 +19.4 76 +29 +29 душно 1011.1 1000.6
штиль 0 16 км ясно +25.0 +18.9 69 +30 +30 душно 1010.9 1000.6
ЮВ 2 16 км ясно +22.8 +18.3 76 +28 +28 душно 1011.0 1000.6
ЮВ 2 16 км ясно +22.2 +18.3 79 +27 +27 душно 1011.4 1001.0 +22.2 +30.6
ЮВ 2 16 км ясно +21.1 +18.9 87 +25 +25 комфорт 1012.0 1001.3
В 2 16 км ясно +22.8 +19.4 81 +29 +29 очень
душно
1012.5 1002.0
ЮВ 3 16 км ясно +25.6 +17.8 62 +30 +31 душно 1013.0 1002.3
В 2 16 км ясно +29.4 +15.6 43 +32 +36 душно 1013.0 1002.3
нст 2 16 км ясно +31.7 +14.4 35 +33 +41 жарко 1012.7 1002.3
нст 2 16 км ясно +33.3 +15.0 33 +35 +47 душно 1012.4 1002.0 +21.1 +33.3
З 3 16 км ясно +34.4 +13.9 29 +35 +49 очень
жарко
1011.9 1001.7
З 4 16 км ясно +37.2 +10.6 20 +36 +49 очень
жарко
1011.4 1001.0
З 4 16 км ясно +38.9 +13.3 22 +39 +53 опасность
солнечного
удара
1010.7 1000.3
СЗ 4 16 км ясно +39.4 +12.8 21 +39 +52 опасность
солнечного
удара
1010.1 999.6
З 4 16 км ясно +40.6 +13.9 21 +41 +52 опасность
перегрева
1009.4 999.0
С 3 16 км ясно +40.6 +13.3 20 +41 +51 опасность
перегрева
1008.7 998.3 +33.3 +41.1
С 3 16 км ясно +40.0 +12.8 20 +40 +46 очень
душно
1008.5 998.0
СВ 2 16 км ясно +38.9 +15.0 24 +40 +43 очень
душно
1008.4 998.0
З 3 16 км ясно +36.7 +16.7 31 +39 +40 очень
душно
1008.7 998.3
СЗ 4 16 км ясно +33.9 +17.8 38 +38 +38 очень
душно
1009.1 998.6
СЗ 7 16 км ясно +32.8 +15.6 36 +35 +35 душно 1009.8 999.3
СЗ 6 16 км ясно +30.0 +16.7 45 +34 +34 очень
душно
1010.0 999.6 +30.0 +41.1
СЗ 5 16 км ясно +28.9 +15.6 44 +32 +32 душно 1010.0 999.6
СЗ 5 16 км ясно +27.8 +15.0 46 +30 +30 жарко 1010.2 999.6
СЗ 4 16 км ясно +27.2 +14.4 45 +29 +29 жарко 1010.0 999.6
З 2 16 км ясно +24.4 +15.0 56 +27 +27 жарко 1010.6 1000.0
штиль 0 16 км ясно +23.3 +15.6 62 +28 +28 душно 1010.7 1000.0
штиль 0 16 км ясно +23.3 +13.9 55 +27 +27 душно 1010.9 1000.3 +22.8 +30.0
штиль 0 16 км ясно +22.2 +14.4 61 +25 +25 комфорт 1011.2 1000.6
штиль 0 16 км ясно +23.3 +15.6 62 +28 +28 душно 1011.7 1001.0
Местоположение метеостанции Visalia Municipal Airport: широта 36.3167 долгота -119.4000 высота над уровнем моря 90 м.
В архиве по умолчанию представлена погода в Висейлии за последние 1-2 суток. Обновление информации о фактической погоде в базе происходит ежечасно! Архивные данные за месяц целиком и за предыдущие месяцы Вы можете получить, выбрав интересующий диапазон дат из раскрывающегося списка и нажав кнопку "Ввод!".
Внимание! Архив погоды МЕТАР в базе сайта по станциям, не включенным в климатический монитор, хранится не более 60 дней. Нет смысла пытаться выбрать более раннюю дату.
*Определитесь, кто Вы:
Внимание! Время в таблицах - местное (без учета летнего времени). Для получения всемирного времени необходимо вычесть поправку, которая равна -8 ч.
Смотрите также архив погоды в соседних городах и на ближайших метеорологических станциях:
Партнеры нашего сайта:      
Пояснения к столбцам:
  • Ветер - указаны скорость ветра в м/с - средняя за 10 мин, порывы в срок и между сроками (в фигурных скобках) и направление, откуда дует ветер: С - северный,
  • СВ - северо-восточный, В - восточный, ЮВ - юго-восточный, Ю - южный, ЮЗ - юго-западный, З - западный, СЗ - северо-западный.
  • Видимость - горизонтальная дальность видимости в метрах или километрах. При видимости от 1 до 10 км при отсутствии осадков обычно наблюдается дымка, при ухудшении видимости до 1 км и менее - туман. В сухую погоду видимость может ухудшаться дымом, пылью или мглою.
  • Явления - указаны атмосферные явления, наблюдавшиеся в срок или в последний час перед сроком; фигурными скобками обозначены явления, наблюдавшиеся между сроками (за 1-3 часа до срока); квадратными скобками обозначены град или гололедные отложения с указанием их диаметра в мм.
  • Облачность - указаны через наклонную черту общая и нижняя облачность в баллах и высота нижней границы облаков в метрах; квадратными скобками обозначены формы облаков: Ci - перистые, Cs - перисто-слоистые, Cc - перисто-кучевые, Ac - высококучевые, As - высокослоистые, Sc - слоисто-кучевые, Ns - слоисто-дождевые, Cu - кучевые, Cb - кучево-дождевые. Подробнее классификацию облаков см. в Атласе облаков (PDF).
  • T - Температура воздуха - температура, измеренная на высоте 2 м над землей.
  • Td - Температура точки росы - температура, при понижении до которой содержащийся в воздухе водяной пар достигнет насыщения.
  • f - Относительная влажность воздуха - влажноcть воздуха, измеренная на высоте 2 м над землей.
  • Te - Эффективная температура - температура, которую ощущает одетый по сезону человек в тени. Характеристика душности погоды. При расчете учитывается влияние влажности воздуха и скорости ветра на теплоощущения человека.
  • Tes - Эффективная температура на солнце - температура, которую ощущает человек, с поправкой на солнечный нагрев. Характеристика знойности погоды. Зависит от высоты солнца над горизонтом, облачности и скорости ветра. Ночью, в пасмурную погоду, а также при ветре 12 м/с и более поправка равна нулю.
  • P - Атмосферное давление - приведенное к уровню моря атмосферное давление.
  • Po - Атмосферное давление - измеренное на уровне метеостанции атмосферное давление.
  • Tmin - Минимальная температура - минимум температуры воздуха на высоте 2 м над землей.
  • Tmax - Максимальная температура - максимум температуры воздуха на высоте 2 м над землей.
  • R - Количество осадков - Количество выпавших осадков за период времени, мм. При наведении курсора мыши на число - период времени, за который выпало указанное количество осадков.
  • R24 - Количество осадков - Количество выпавших осадков за 24 часа, мм.
  • S - Снежный покров - Высота снежного покрова, см. При наведении курсора мыши на число - состояние снежного покрова и степень покрытия местности в баллах.